Regional Weather Roundup
Issued by NWS Goodland, KS

Home | Current Version | Previous Version | Graphics & Text | Print | Product List | Glossary On
Versions: 1 2 3 4 5 6 7 8 9 10 11 12 13 14 15 16 17 18 19 20 21 22 23 24 25 26 27 28 29 30 31 32 33 34 35 36 37 38 39 40 41 42 43 44 45 46 47 48 49 50
000
ASUS43 KGLD 280008
RWRGLD

GOODLAND FORECAST AREA HOURLY WEATHER ROUNDUP
NATIONAL WEATHER SERVICE GOODLAND KS
600 PM MDT WED JUL 27 2016

...OFFICIAL OBSERVATIONS...

CITY           SKY/WX    TMP DP  RH WIND       PRES   REMARKS
GOODLAND KS    SUNNY     89  57  33 SE10      30.04F
HILL CITY KS   SUNNY     88  67  49 E8        29.97F
IMPERIAL NEB   SUNNY     88  58  36 NE9       30.03F
MCCOOK NEB     SUNNY     88  63  43 E8        30.00F
AKRON CO       CLOUDY    82  61  48 E14       30.11S
BURLINGTON CO  SUNNY     87  57  35 E15       30.07F
LIMON CO       SUNNY     86  46  24 SE20G29   30.13F
$$

...UNOFFICIAL OBSERVATIONS...

CITY           SKY/WX    TMP DP  RH WIND       PRES   REMARKS
COLBY KS       SUNNY     90  64  43 E9        30.04S
LENORA KS        N/A     88  32  13 MISG        N/A
NORTON KS      SUNNY     88  54  31 SE7       29.98
SHARON SPRINGS   N/A     87  62  43 SE5G12      N/A
KIT CARSON CO    N/A     91  56  30 MISG        N/A
YUMA CO          N/A     83  62  49 SE6G13      N/A
$$




USA.gov is the U.S. government's official web portal to all federal, state and local government web resources and services.